Tracking 28794 objects as of 19-Apr-2024
HD Live streaming from Space Station
objects crossing your sky now

THOR ABLESTAR DEB

Track THOR ABLESTAR DEB now!
10-day predictions


NORAD ID: 407
Int'l Code: 1961-015EG
Perigee: 645.2 km
Apogee: 719.2 km
Inclination: 66.3 °
Period: 98.3 minutes
Semi major axis: 7053 km
RCS: 0.1153 m2 (medium)
Launch date: June 29, 1961
Source: United States (US)
Launch site: AIR FORCE EASTERN TEST RANGE (AFETR)

Note: This is SATELLITE DEBRIS
Your satellite tracking list
Your tracking list is empty




NASA's NSSDC Master Catalog

Two Line Element Set (TLE):
1 00407U 61015EG  24110.63763800  .00049994  00000-0  89495-2 0  9997
2 00407  66.3215 223.2870 0052468  85.8826  21.5762 14.65621769215077
Source of the keplerian elements: AFSPC